| time (UTC) | temp F | wind direction | speed MPH | gust MPH | rain 1hr in | rain 24hr in | rain mn in | humidity % | barometer mb |
| 20260906194454 | 93 | 276 | 1.0 | 4.0 | 0.00 | 0.03 | 0.01 | 56 | 1012.3 |
| 20260906194027 | 93 | 281 | 1.0 | 4.0 | 0.00 | 0.03 | 0.01 | 56 | 1012.3 |
| 20260906193534 | 94 | 217 | 1.0 | 2.0 | 0.00 | 0.03 | 0.01 | 57 | 1012.3 |
| 20260906192953 | 95 | 277 | 1.0 | 3.0 | 0.00 | 0.03 | 0.01 | 57 | 1012.3 |
| 20260906191954 | 94 | 279 | 1.0 | 3.0 | 0.00 | 0.03 | 0.01 | 57 | 1012.3 |
| 20260906191518 | 94 | 284 | 0.0 | 3.0 | 0.00 | 0.03 | 0.01 | 58 | 1012.3 |
| 20260906190502 | 94 | 258 | 1.0 | 3.0 | 0.00 | 0.03 | 0.01 | 59 | 1012.5 |
| 20260906185449 | 94 | 213 | 1.0 | 3.0 | 0.00 | 0.03 | 0.01 | 57 | 1012.5 |
| 20260906185018 | 95 | 274 | 1.0 | 3.0 | 0.00 | 0.03 | 0.01 | 57 | 1012.6 |
| 20260906183942 | 95 | 274 | 1.0 | 2.0 | 0.00 | 0.03 | 0.01 | 55 | 1012.8 |
| 20260906183514 | 95 | 89 | 0.0 | 2.0 | 0.00 | 0.03 | 0.01 | 60 | 1012.8 |
| 20260906181946 | 93 | 254 | 1.0 | 3.0 | 0.00 | 0.03 | 0.01 | 60 | 1013.0 |
| 20260906181526 | 93 | 259 | 1.0 | 3.0 | 0.00 | 0.03 | 0.01 | 59 | 1013.1 |
| 20260906180936 | 94 | 279 | 0.0 | 3.0 | 0.00 | 0.03 | 0.01 | 62 | 1013.2 |
| 20260906175939 | 94 | 271 | 1.0 | 2.0 | 0.00 | 0.03 | 0.01 | 58 | 1013.3 |
| 20260906175523 | 94 | 257 | 1.0 | 2.0 | 0.00 | 0.03 | 0.01 | 60 | 1013.3 |
| 20260906174947 | 94 | 215 | 0.0 | 1.0 | 0.00 | 0.03 | 0.01 | 60 | 1013.5 |
| 20260906174530 | 93 | 89 | 0.0 | 3.0 | 0.00 | 0.03 | 0.01 | 61 | 1013.5 |
| 20260906173958 | 93 | 267 | 1.0 | 4.0 | 0.00 | 0.03 | 0.01 | 58 | 1013.5 |
| 20260906173001 | 94 | 140 | 0.0 | 1.0 | 0.00 | 0.03 | 0.01 | 59 | 1013.8 |
| 20260906171951 | 94 | 117 | 0.0 | 3.0 | 0.00 | 0.03 | 0.01 | 62 | 1013.9 |
| 20260906171532 | 93 | 277 | 0.0 | 3.0 | 0.00 | 0.03 | 0.01 | 61 | 1014.0 |
| 20260906170949 | 93 | 91 | 0.0 | 0.0 | 0.00 | 0.03 | 0.01 | 63 | 1014.0 |
| 20260906170512 | 92 | 91 | 0.0 | 0.0 | 0.00 | 0.03 | 0.01 | 62 | 1014.1 |
| 20260906165500 | 92 | 270 | 0.0 | 2.0 | 0.00 | 0.03 | 0.01 | 62 | 1014.2 |
| 20260906165030 | 92 | 248 | 1.0 | 2.0 | 0.00 | 0.03 | 0.01 | 61 | 1014.1 |
| 20260906164440 | 92 | 274 | 0.0 | 2.0 | 0.00 | 0.03 | 0.01 | 64 | 1014.2 |
| 20260906163450 | 91 | 277 | 0.0 | 2.0 | 0.00 | 0.03 | 0.01 | 65 | 1014.1 |
| 20260906163026 | 90 | 271 | 0.0 | 2.0 | 0.00 | 0.03 | 0.01 | 65 | 1014.2 |
| 20260906162451 | 90 | 284 | 1.0 | 2.0 | 0.00 | 0.03 | 0.01 | 67 | 1014.2 |
| 20260906162021 | 90 | 288 | 1.0 | 2.0 | 0.00 | 0.03 | 0.01 | 67 | 1014.3 |
| 20260906161542 | 89 | 277 | 0.0 | 3.0 | 0.00 | 0.03 | 0.01 | 69 | 1014.3 |
| 20260906160939 | 89 | 284 | 1.0 | 3.0 | 0.00 | 0.03 | 0.01 | 69 | 1014.3 |
| 20260906160505 | 89 | 281 | 1.0 | 2.0 | 0.00 | 0.03 | 0.01 | 70 | 1014.3 |
| 20260906155950 | 89 | 270 | 0.0 | 1.0 | 0.00 | 0.03 | 0.01 | 71 | 1014.3 |
| 20260906154946 | 88 | 279 | 1.0 | 2.0 | 0.00 | 0.03 | 0.01 | 73 | 1014.3 |
| 20260906154513 | 88 | 275 | 0.0 | 3.0 | 0.00 | 0.03 | 0.01 | 75 | 1014.3 |
| 20260906152936 | 86 | 271 | 0.0 | 0.0 | 0.00 | 0.03 | 0.01 | 78 | 1014.2 |
| 20260906151947 | 84 | 214 | 0.0 | 1.0 | 0.00 | 0.03 | 0.01 | 79 | 1014.2 |
| 20260906150940 | 83 | 267 | 0.0 | 0.0 | 0.00 | 0.03 | 0.01 | 82 | 1014.2 |
| 20260906150521 | 83 | 268 | 0.0 | 1.0 | 0.00 | 0.03 | 0.01 | 83 | 1014.3 |
| 20260906145511 | 82 | 258 | 0.0 | 1.0 | 0.00 | 0.03 | 0.01 | 85 | 1014.4 |
| 20260906144502 | 81 | 291 | 0.0 | 0.0 | 0.00 | 0.03 | 0.01 | 86 | 1014.3 |
| 20260906144035 | 81 | 111 | 0.0 | 0.0 | 0.00 | 0.03 | 0.01 | 87 | 1014.3 |
| 20260906143445 | 80 | 111 | 0.0 | 0.0 | 0.00 | 0.03 | 0.01 | 88 | 1014.4 |
| 20260906143026 | 80 | 111 | 0.0 | 0.0 | 0.00 | 0.03 | 0.01 | 88 | 1014.3 |
| 20260906142000 | 79 | 111 | 0.0 | 0.0 | 0.00 | 0.03 | 0.01 | 89 | 1014.4 |
| 20260906140958 | 79 | 111 | 0.0 | 0.0 | 0.00 | 0.03 | 0.01 | 89 | 1014.3 |
| 20260906135947 | 78 | 111 | 0.0 | 1.0 | 0.00 | 0.03 | 0.01 | 91 | 1014.2 |
| 20260906134958 | 78 | 111 | 0.0 | 1.0 | 0.00 | 0.03 | 0.01 | 92 | 1013.9 |
| 20260906134013 | 77 | 111 | 0.0 | 1.0 | 0.00 | 0.03 | 0.01 | 93 | 1013.8 |
| 20260906133007 | 77 | 111 | 0.0 | 0.0 | 0.00 | 0.03 | 0.01 | 95 | 1013.8 |
| 20260906132008 | 76 | 111 | 0.0 | 0.0 | 0.00 | 0.03 | 0.01 | 96 | 1013.7 |
| 20260906131005 | 75 | 111 | 0.0 | 0.0 | 0.00 | 0.03 | 0.01 | 96 | 1013.6 |
| 20260906130515 | 75 | 111 | 0.0 | 0.0 | 0.00 | 0.03 | 0.01 | 97 | 1013.6 |
| 20260906125940 | 75 | 111 | 0.0 | 0.0 | 0.00 | 0.03 | 0.01 | 97 | 1013.7 |
| 20260906125000 | 75 | 111 | 0.0 | 0.0 | 0.00 | 0.03 | 0.01 | 97 | 1013.6 |
| 20260906123946 | 75 | 111 | 0.0 | 0.0 | 0.00 | 0.03 | 0.01 | 97 | 1013.5 |
| 20260906123004 | 74 | 111 | 0.0 | 0.0 | 0.00 | 0.03 | 0.01 | 97 | 1013.6 |
| 20260906121952 | 74 | 111 | 0.0 | 0.0 | 0.00 | 0.03 | 0.01 | 97 | 1013.5 |
| 20260906120947 | 74 | 111 | 0.0 | 0.0 | 0.00 | 0.03 | 0.01 | 96 | 1013.4 |
| 20260906115951 | 74 | 111 | 0.0 | 0.0 | 0.00 | 0.03 | 0.01 | 96 | 1013.2 |
| 20260906115528 | 74 | 111 | 0.0 | 0.0 | 0.00 | 0.03 | 0.01 | 96 | 1013.1 |
| 20260906114937 | 74 | 111 | 0.0 | 0.0 | 0.00 | 0.03 | 0.01 | 96 | 1013.1 |
| 20260906114500 | 74 | 111 | 0.0 | 0.0 | 0.00 | 0.03 | 0.01 | 96 | 1013.1 |
| 20260906114031 | 74 | 111 | 0.0 | 0.0 | 0.00 | 0.03 | 0.01 | 97 | 1013.0 |
| 20260906113451 | 74 | 111 | 0.0 | 0.0 | 0.00 | 0.03 | 0.01 | 96 | 1012.9 |
| 20260906112456 | 74 | 111 | 0.0 | 0.0 | 0.00 | 0.03 | 0.01 | 96 | 1012.8 |
| 20260906111441 | 74 | 111 | 0.0 | 0.0 | 0.00 | 0.03 | 0.01 | 96 | 1012.8 |
| 20260906111004 | 74 | 111 | 0.0 | 0.0 | 0.00 | 0.03 | 0.01 | 96 | 1012.8 |
| 20260906105957 | 74 | 111 | 0.0 | 0.0 | 0.00 | 0.03 | 0.01 | 96 | 1012.8 |
| 20260906105534 | 74 | 111 | 0.0 | 0.0 | 0.00 | 0.03 | 0.01 | 96 | 1012.7 |
| 20260906104943 | 74 | 111 | 0.0 | 0.0 | 0.00 | 0.03 | 0.01 | 96 | 1012.6 |
| 20260906104012 | 74 | 111 | 0.0 | 0.0 | 0.01 | 0.03 | 0.01 | 96 | 1012.5 |
| 20260906103528 | 75 | 111 | 0.0 | 0.0 | 0.01 | 0.03 | 0.01 | 96 | 1012.4 |
| 20260906102945 | 74 | 111 | 0.0 | 0.0 | 0.01 | 0.03 | 0.01 | 96 | 1012.4 |
| 20260906101946 | 75 | 111 | 0.0 | 0.0 | 0.01 | 0.03 | 0.01 | 96 | 1012.4 |
| 20260906100956 | 75 | 111 | 0.0 | 0.0 | 0.01 | 0.03 | 0.01 | 96 | 1012.3 |
| 20260906100534 | 75 | 111 | 0.0 | 0.0 | 0.01 | 0.03 | 0.01 | 96 | 1012.3 |
| 20260906100051 | 75 | 111 | 0.0 | 0.0 | 0.01 | 0.03 | 0.01 | 96 | 1012.3 |
| 20260906095448 | 75 | 111 | 0.0 | 0.0 | 0.01 | 0.03 | 0.01 | 96 | 1012.2 |
| 20260906095030 | 75 | 111 | 0.0 | 0.0 | 0.01 | 0.03 | 0.01 | 96 | 1012.2 |
| 20260906094535 | 75 | 111 | 0.0 | 0.0 | 0.00 | 0.02 | 0.00 | 96 | 1012.2 |
| 20260906093937 | 75 | 111 | 0.0 | 0.0 | 0.00 | 0.02 | 0.00 | 96 | 1012.2 |
| 20260906093509 | 75 | 111 | 0.0 | 0.0 | 0.00 | 0.02 | 0.00 | 96 | 1012.2 |
| 20260906092453 | 75 | 111 | 0.0 | 0.0 | 0.00 | 0.02 | 0.00 | 96 | 1012.4 |
| 20260906092030 | 75 | 111 | 0.0 | 0.0 | 0.00 | 0.02 | 0.00 | 96 | 1012.3 |
| 20260906091439 | 75 | 111 | 0.0 | 0.0 | 0.00 | 0.02 | 0.00 | 96 | 1012.4 |
| 20260906091000 | 75 | 111 | 0.0 | 0.0 | 0.00 | 0.02 | 0.00 | 96 | 1012.5 |
| 20260906090011 | 75 | 111 | 0.0 | 0.0 | 0.00 | 0.02 | 0.00 | 96 | 1012.4 |
| 20260906084958 | 76 | 111 | 0.0 | 0.0 | 0.00 | 0.02 | 0.00 | 95 | 1012.3 |
| 20260906084520 | 76 | 111 | 0.0 | 0.0 | 0.00 | 0.02 | 0.00 | 95 | 1012.4 |
| 20260906083944 | 76 | 111 | 0.0 | 0.0 | 0.00 | 0.02 | 0.00 | 95 | 1012.3 |
| 20260906083507 | 76 | 111 | 0.0 | 0.0 | 0.00 | 0.02 | 0.00 | 95 | 1012.2 |
| 20260906082506 | 76 | 111 | 0.0 | 0.0 | 0.00 | 0.02 | 0.00 | 95 | 1012.3 |
| 20260906082015 | 76 | 111 | 0.0 | 0.0 | 0.00 | 0.02 | 0.00 | 95 | 1012.3 |
| 20260906081001 | 76 | 111 | 0.0 | 0.0 | 0.00 | 0.02 | 0.00 | 95 | 1012.3 |
| 20260906075958 | 76 | 88 | 0.0 | 0.0 | 0.00 | 0.02 | 0.00 | 95 | 1012.3 |
| 20260906074958 | 76 | 88 | 0.0 | 0.0 | 0.00 | 0.02 | 0.00 | 95 | 1012.5 |
| 20260906074451 | 76 | 88 | 0.0 | 0.0 | 0.00 | 0.02 | 0.00 | 95 | 1012.5 |
| 20260906074028 | 76 | 88 | 0.0 | 0.0 | 0.00 | 0.02 | 0.00 | 95 | 1012.5 |
| 20260906073441 | 76 | 88 | 0.0 | 0.0 | 0.00 | 0.02 | 0.00 | 95 | 1012.5 |
| 20260906073013 | 76 | 88 | 0.0 | 0.0 | 0.00 | 0.02 | 0.00 | 95 | 1012.5 |
| 20260906072547 | 76 | 88 | 0.0 | 0.0 | 0.00 | 0.02 | 0.00 | 95 | 1012.5 |
| 20260906071934 | 76 | 88 | 0.0 | 0.0 | 0.00 | 0.02 | 0.00 | 95 | 1012.4 |
| 20260906071523 | 76 | 88 | 0.0 | 0.0 | 0.00 | 0.02 | 0.00 | 95 | 1012.3 |
| 20260906071050 | 76 | 88 | 0.0 | 0.0 | 0.00 | 0.02 | 0.00 | 94 | 1012.5 |
| 20260906070446 | 76 | 88 | 0.0 | 0.0 | 0.00 | 0.02 | 0.00 | 94 | 1012.4 |
| 20260906065932 | 76 | 88 | 0.0 | 0.0 | 0.00 | 0.02 | 0.00 | 94 | 1012.4 |
| 20260906065439 | 76 | 88 | 0.0 | 0.0 | 0.00 | 0.02 | 0.00 | 94 | 1012.3 |
| 20260906064956 | 76 | 88 | 0.0 | 0.0 | 0.00 | 0.02 | 0.00 | 94 | 1012.4 |
| 20260906064440 | 76 | 88 | 0.0 | 1.0 | 0.00 | 0.02 | 0.00 | 94 | 1012.3 |
| 20260906064001 | 76 | 88 | 0.0 | 1.0 | 0.00 | 0.02 | 0.00 | 94 | 1012.3 |
| 20260906063437 | 76 | 88 | 0.0 | 0.0 | 0.00 | 0.02 | 0.00 | 94 | 1012.3 |
| 20260906062941 | 76 | 88 | 0.0 | 1.0 | 0.00 | 0.02 | 0.00 | 94 | 1012.3 |
| 20260906062440 | 76 | 88 | 0.0 | 1.0 | 0.00 | 0.02 | 0.00 | 94 | 1012.2 |
| 20260906061946 | 76 | 88 | 0.0 | 1.0 | 0.00 | 0.02 | 0.00 | 94 | 1012.2 |
| 20260906061446 | 76 | 88 | 0.0 | 0.0 | 0.00 | 0.02 | 0.00 | 94 | 1012.2 |
| 20260906061010 | 76 | 88 | 0.0 | 1.0 | 0.00 | 0.02 | 0.00 | 94 | 1012.2 |
| 20260906060500 | 76 | 88 | 0.0 | 1.0 | 0.00 | 0.02 | 0.00 | 93 | 1012.2 |
| 20260906055951 | 76 | 88 | 0.0 | 2.0 | 0.00 | 0.02 | 0.00 | 93 | 1012.3 |
| 20260906055449 | 76 | 88 | 0.0 | 2.0 | 0.00 | 0.02 | 0.00 | 93 | 1012.3 |
| 20260906054953 | 76 | 265 | 0.0 | 0.0 | 0.00 | 0.02 | 0.00 | 93 | 1012.2 |
| 20260906054457 | 76 | 265 | 0.0 | 0.0 | 0.00 | 0.02 | 0.00 | 93 | 1012.2 |
| 20260906053935 | 76 | 265 | 0.0 | 0.0 | 0.00 | 0.02 | 0.00 | 93 | 1012.2 |
| 20260906053436 | 76 | 265 | 0.0 | 0.0 | 0.00 | 0.02 | 0.00 | 93 | 1012.2 |
| 20260906052957 | 76 | 265 | 0.0 | 0.0 | 0.00 | 0.02 | 0.00 | 93 | 1012.2 |
| 20260906052517 | 76 | 265 | 0.0 | 0.0 | 0.00 | 0.02 | 0.00 | 93 | 1012.2 |
| 20260906051957 | 76 | 265 | 0.0 | 0.0 | 0.00 | 0.02 | 0.00 | 93 | 1012.1 |
| 20260906051444 | 76 | 265 | 0.0 | 0.0 | 0.00 | 0.02 | 0.02 | 93 | 1012.0 |
| 20260906050938 | 76 | 265 | 0.0 | 0.0 | 0.00 | 0.02 | 0.02 | 93 | 1012.0 |
| 20260906050439 | 76 | 265 | 0.0 | 0.0 | 0.00 | 0.02 | 0.02 | 92 | 1011.9 |
| 20260906045959 | 76 | 265 | 0.0 | 0.0 | 0.00 | 0.02 | 0.02 | 92 | 1011.9 |
| 20260906045005 | 77 | 265 | 0.0 | 0.0 | 0.00 | 0.02 | 0.02 | 92 | 1012.0 |
| 20260906043947 | 77 | 265 | 0.0 | 0.0 | 0.00 | 0.02 | 0.02 | 92 | 1012.0 |
| 20260906043521 | 77 | 265 | 0.0 | 0.0 | 0.00 | 0.02 | 0.02 | 92 | 1012.1 |
| 20260906042951 | 77 | 265 | 0.0 | 0.0 | 0.00 | 0.02 | 0.02 | 93 | 1012.1 |
| 20260906041949 | 77 | 265 | 0.0 | 0.0 | 0.00 | 0.02 | 0.02 | 92 | 1012.1 |
| 20260906040940 | 77 | 265 | 0.0 | 0.0 | 0.00 | 0.02 | 0.02 | 92 | 1011.8 |
| 20260906040521 | 76 | 265 | 0.0 | 0.0 | 0.00 | 0.02 | 0.02 | 92 | 1011.7 |
| 20260906035948 | 77 | 265 | 0.0 | 0.0 | 0.00 | 0.02 | 0.02 | 92 | 1012.1 |
| 20260906035502 | 77 | 265 | 0.0 | 0.0 | 0.00 | 0.02 | 0.02 | 92 | 1012.2 |
| 20260906034445 | 77 | 265 | 0.0 | 0.0 | 0.00 | 0.02 | 0.02 | 92 | 1012.4 |
| 20260906034023 | 77 | 265 | 0.0 | 0.0 | 0.00 | 0.02 | 0.02 | 92 | 1012.4 |
| 20260906032951 | 77 | 265 | 0.0 | 0.0 | 0.00 | 0.02 | 0.02 | 92 | 1012.2 |
| 20260906031956 | 77 | 265 | 0.0 | 0.0 | 0.00 | 0.02 | 0.02 | 92 | 1012.0 |
| 20260906030940 | 77 | 265 | 0.0 | 0.0 | 0.00 | 0.02 | 0.02 | 91 | 1012.1 |
| 20260906030503 | 77 | 265 | 0.0 | 0.0 | 0.00 | 0.02 | 0.02 | 91 | 1012.0 |
| 20260906030031 | 77 | 265 | 0.0 | 0.0 | 0.00 | 0.02 | 0.02 | 91 | 1011.9 |
| 20260906025448 | 77 | 265 | 0.0 | 0.0 | 0.00 | 0.02 | 0.02 | 91 | 1012.2 |
| 20260906024459 | 77 | 265 | 0.0 | 0.0 | 0.00 | 0.02 | 0.02 | 91 | 1011.9 |
| 20260906024029 | 77 | 265 | 0.0 | 0.0 | 0.00 | 0.02 | 0.02 | 91 | 1012.0 |
| 20260906023447 | 78 | 265 | 0.0 | 0.0 | 0.00 | 0.02 | 0.02 | 91 | 1012.2 |
| 20260906022448 | 78 | 265 | 0.0 | 0.0 | 0.00 | 0.02 | 0.02 | 91 | 1012.3 |
| 20260906022022 | 78 | 265 | 0.0 | 0.0 | 0.00 | 0.02 | 0.02 | 91 | 1012.3 |
| 20260906021009 | 78 | 265 | 0.0 | 2.0 | 0.00 | 0.02 | 0.02 | 91 | 1011.9 |
| 20260906020005 | 78 | 282 | 0.0 | 1.0 | 0.00 | 0.02 | 0.02 | 91 | 1011.9 |
| 20260906014950 | 79 | 282 | 0.0 | 2.0 | 0.00 | 0.02 | 0.02 | 91 | 1012.2 |
| 20260906014024 | 79 | 286 | 0.0 | 2.0 | 0.00 | 0.02 | 0.02 | 91 | 1012.0 |
| 20260906013523 | 79 | 271 | 1.0 | 2.0 | 0.00 | 0.02 | 0.02 | 91 | 1012.0 |
| 20260906012936 | 79 | 278 | 0.0 | 2.0 | 0.00 | 0.02 | 0.02 | 91 | 1011.8 |
| 20260906012510 | 79 | 282 | 0.0 | 2.0 | 0.00 | 0.02 | 0.02 | 90 | 1011.9 |
| 20260906012028 | 79 | 271 | 0.0 | 2.0 | 0.00 | 0.02 | 0.02 | 90 | 1012.1 |
| 20260906011500 | 79 | 277 | 1.0 | 3.0 | 0.00 | 0.02 | 0.02 | 90 | 1012.1 |
| 20260906011033 | 79 | 290 | 1.0 | 3.0 | 0.00 | 0.02 | 0.02 | 90 | 1012.4 |
| 20260906010450 | 79 | 278 | 0.0 | 3.0 | 0.00 | 0.02 | 0.02 | 90 | 1012.1 |
| 20260906005452 | 79 | 283 | 1.0 | 1.0 | 0.00 | 0.02 | 0.02 | 89 | 1011.8 |
| 20260906005028 | 80 | 276 | 0.0 | 0.0 | 0.00 | 0.02 | 0.02 | 89 | 1011.5 |
| 20260906004435 | 80 | 283 | 0.0 | 0.0 | 0.00 | 0.02 | 0.02 | 88 | 1011.5 |
| 20260906003500 | 80 | 283 | 0.0 | 1.0 | 0.00 | 0.02 | 0.02 | 88 | 1011.6 |
| 20260906003031 | 80 | 283 | 0.0 | 2.0 | 0.00 | 0.02 | 0.02 | 87 | 1011.7 |
| 20260906002452 | 80 | 287 | 0.0 | 3.0 | 0.00 | 0.02 | 0.02 | 87 | 1011.9 |
| 20260906002015 | 80 | 273 | 0.0 | 1.0 | 0.00 | 0.02 | 0.02 | 87 | 1011.8 |
| 20260906001435 | 81 | 274 | 0.0 | 1.0 | 0.00 | 0.02 | 0.02 | 87 | 1011.8 |
| 20260906001018 | 81 | 277 | 0.0 | 2.0 | 0.00 | 0.02 | 0.02 | 87 | 1011.7 |
| 20260906000437 | 81 | 276 | 0.0 | 2.0 | 0.00 | 0.02 | 0.02 | 87 | 1011.9 |
| 20260906000007 | 81 | 257 | 0.0 | 0.0 | 0.00 | 0.02 | 0.02 | 87 | 1011.8 |
| 20260905235000 | 81 | 257 | 0.0 | 1.0 | 0.00 | 0.02 | 0.02 | 87 | 1011.9 |
| 20260905234435 | 81 | 255 | 0.0 | 0.0 | 0.00 | 0.02 | 0.02 | 87 | 1011.7 |
| 20260905233443 | 81 | 255 | 0.0 | 1.0 | 0.00 | 0.02 | 0.02 | 87 | 1011.8 |
| 20260905232458 | 81 | 255 | 0.0 | 0.0 | 0.00 | 0.02 | 0.02 | 86 | 1011.8 |
| 20260905232015 | 81 | 255 | 0.0 | 0.0 | 0.00 | 0.02 | 0.02 | 86 | 1011.7 |
| 20260905231439 | 81 | 255 | 0.0 | 0.0 | 0.00 | 0.02 | 0.02 | 86 | 1011.7 |
| 20260905231015 | 81 | 255 | 0.0 | 0.0 | 0.00 | 0.02 | 0.02 | 85 | 1011.9 |
| 20260905230442 | 81 | 255 | 0.0 | 0.0 | 0.00 | 0.02 | 0.02 | 85 | 1011.7 |
| 20260905230005 | 81 | 255 | 0.0 | 0.0 | 0.00 | 0.02 | 0.02 | 85 | 1011.6 |
| 20260905225013 | 81 | 256 | 0.0 | 1.0 | 0.00 | 0.02 | 0.02 | 85 | 1011.6 |
| 20260905224434 | 81 | 256 | 1.0 | 1.0 | 0.00 | 0.02 | 0.02 | 84 | 1011.6 |
| 20260905224011 | 81 | 254 | 0.0 | 0.0 | 0.00 | 0.02 | 0.02 | 86 | 1011.6 |
| 20260905222942 | 80 | 254 | 0.0 | 0.0 | 0.00 | 0.02 | 0.02 | 86 | 1011.5 |
| 20260905222517 | 80 | 254 | 0.0 | 0.0 | 0.00 | 0.02 | 0.02 | 86 | 1011.5 |
| 20260905222053 | 80 | 254 | 0.0 | 0.0 | 0.00 | 0.02 | 0.02 | 86 | 1011.5 |
| 20260905221436 | 80 | 254 | 0.0 | 1.0 | 0.00 | 0.02 | 0.02 | 86 | 1011.7 |
| 20260905221011 | 80 | 254 | 0.0 | 1.0 | 0.00 | 0.02 | 0.02 | 86 | 1011.7 |
| 20260905220543 | 80 | 254 | 0.0 | 1.0 | 0.00 | 0.02 | 0.02 | 86 | 1011.7 |
| 20260905215952 | 81 | 254 | 0.0 | 1.0 | 0.00 | 0.02 | 0.02 | 85 | 1011.8 |
| 20260905215030 | 81 | 245 | 0.0 | 1.0 | 0.00 | 0.02 | 0.02 | 84 | 1011.9 |
| 20260905214446 | 81 | 243 | 0.0 | 1.0 | 0.00 | 0.02 | 0.02 | 85 | 1012.1 |
| 20260905214025 | 80 | 243 | 0.0 | 1.0 | 0.01 | 0.02 | 0.02 | 85 | 1012.0 |
| 20260905213445 | 81 | 243 | 0.0 | 0.0 | 0.01 | 0.02 | 0.02 | 86 | 1011.9 |
| 20260905212445 | 80 | 244 | 0.0 | 1.0 | 0.02 | 0.02 | 0.02 | 86 | 1011.8 |
| 20260905212024 | 80 | 226 | 0.0 | 1.0 | 0.02 | 0.02 | 0.02 | 86 | 1011.7 |
| 20260905211553 | 80 | 223 | 0.0 | 1.0 | 0.02 | 0.02 | 0.02 | 86 | 1011.5 |
| 20260905210940 | 80 | 175 | 0.0 | 0.0 | 0.02 | 0.02 | 0.02 | 86 | 1011.6 |
| 20260905210529 | 80 | 186 | 0.0 | 0.0 | 0.02 | 0.02 | 0.02 | 86 | 1011.7 |
| 20260905205941 | 80 | 206 | 0.0 | 0.0 | 0.02 | 0.02 | 0.02 | 86 | 1011.8 |
| 20260905205520 | 80 | 202 | 0.0 | 0.0 | 0.02 | 0.02 | 0.02 | 86 | 1011.9 |
| 20260905204942 | 80 | 178 | 0.0 | 1.0 | 0.02 | 0.02 | 0.02 | 86 | 1012.1 |
| 20260905204000 | 81 | 236 | 0.0 | 2.0 | 0.01 | 0.01 | 0.01 | 84 | 1012.4 |
| 20260905203527 | 82 | 267 | 1.0 | 2.0 | 0.01 | 0.01 | 0.01 | 83 | 1012.5 |
| 20260905202948 | 82 | 270 | 1.0 | 4.0 | 0.01 | 0.01 | 0.01 | 81 | 1012.6 |
| 20260905201959 | 85 | 306 | 3.0 | 6.0 | 0.00 | 0.00 | 0.00 | 75 | 1012.6 |
| 20260905200946 | 90 | 278 | 2.0 | 4.0 | 0.00 | 0.00 | 0.00 | 66 | 1012.4 |
| 20260905195955 | 93 | 271 | 1.0 | 3.0 | 0.00 | 0.00 | 0.00 | 54 | 1011.9 |
| 20260905195530 | 94 | 271 | 1.0 | 1.0 | 0.00 | 0.00 | 0.00 | 53 | 1011.7 |
| 20260905194945 | 95 | 233 | 0.0 | 0.0 | 0.00 | 0.00 | 0.00 | 51 | 1011.6 |